Lafayette, LA

3:41 PM CST on November 17, 2017 (GMT -0600)
Lafayette Regional

Weather History for KLFT - April, 2013

Change the Weather History Date:

Sunday, April 28, 2013

  Actual Average Record
Temperature  
Mean Temperature 72 °F 72 °F  
Max Temperature 79 °F 82 °F 93 °F (1987)
Min Temperature 65 °F 62 °F 39 °F (1928)
Degree Days  
Heating Degree Days 0 0  
Month to date heating degree days 60 38  
Since 1 July heating degree days 1305 1418  
Cooling Degree Days 7 7  
Month to date cooling degree days 98 143  
Year to date cooling degree days 158 238  
Growing Degree Days 22 (Base 50)    
Moisture  
Dew Point 66 °F    
Average Humidity 78    
Maximum Humidity 93    
Minimum Humidity 62    
Precipitation  
Precipitation T in 0.15 in 3.46 in (1972)
Month to date precipitation 5.86 3.64  
Year to date precipitation 25.93 17.55  
Snow  
Snow 0.00 in 0.00 in 0.00 in ()
Month to date snowfall 0.0 0.0  
Since 1 July snowfall 0.0 T  
Snow Depth 0.00 in    
Sea Level Pressure  
Sea Level Pressure 29.99 in    
Wind  
Wind Speed 4 mph (SSW)    
Max Wind Speed 13 mph    
Max Gust Speed 20 mph    
Visibility 10 miles    
Events Rain    
T = Trace of Precipitation, MM = Missing Value Source: NWS Daily Summary

Daily Weather History Graph

Daily Weather History Graph

Search for Another Location

Airport or City:

Trip Planner

Search our weather history database for the weather conditions in past years. The results will help you decide how hot, cold, wet, or windy it might be!

Date:

Astronomy

Apr. 28, 2013 Rise Set
Actual Time 6:27 AM CDT 7:43 PM CDT
Civil Twilight 6:02 AM CDT 8:09 PM CDT
Nautical Twilight 5:32 AM CDT 8:39 PM CDT
Astronomical Twilight 5:00 AM CDT 9:10 PM CDT
Moon 11:07 PM CDT (4/28) 8:52 AM CDT (4/28)
Length of Visible Light 14h 07m
Length of Day
13h 16m
Waning Gibbous, 88% of the Moon is Illuminated
Apr 28
Waning Gibbous
May 2
Last Quarter
May 9
New
May 17
First Quarter
May 24
Full

Hourly Weather History & Observations

Time (CDT) Temp. Dew Point Humidity Pressure Visibility Wind Dir Wind Speed Gust Speed Precip Events Conditions
12:53 AM 72.0 °F 69.1 °F 91% 30.04 in 10.0 mi South 5.8 mph - N/A   Mostly Cloudy
1:34 AM 71.6 °F 69.8 °F 94% 30.03 in 10.0 mi South 6.9 mph - 0.00 in   Overcast
1:53 AM 72.0 °F 69.1 °F 91% 30.02 in 9.0 mi SSE 5.8 mph - 0.00 in   Overcast
2:00 AM 71.6 °F 69.8 °F 94% 30.01 in 9.0 mi SSE 10.4 mph - 0.00 in Rain Light Rain
2:09 AM 71.6 °F 69.8 °F 94% 30.00 in 9.0 mi South 10.4 mph - 0.00 in   Overcast
2:34 AM 71.6 °F 69.8 °F 94% 30.01 in 9.0 mi SSW 10.4 mph - 0.00 in   Mostly Cloudy
2:53 AM 72.0 °F 69.1 °F 91% 30.00 in 9.0 mi South 9.2 mph - 0.00 in   Mostly Cloudy
3:22 AM 71.6 °F 69.8 °F 94% 29.98 in 10.0 mi South 9.2 mph 19.6 mph N/A   Mostly Cloudy
3:33 AM 71.6 °F 69.8 °F 94% 29.97 in 9.0 mi South 8.1 mph - N/A   Mostly Cloudy
3:53 AM 72.0 °F 69.1 °F 91% 29.98 in 9.0 mi SSW 5.8 mph - N/A   Mostly Cloudy
4:23 AM 71.6 °F 68.0 °F 88% 30.00 in 10.0 mi WSW 5.8 mph - N/A   Mostly Cloudy
4:46 AM 71.6 °F 68.0 °F 88% 30.00 in 9.0 mi SW 5.8 mph - N/A   Mostly Cloudy
4:53 AM 71.1 °F 68.0 °F 90% 30.00 in 9.0 mi SW 5.8 mph - N/A   Mostly Cloudy
5:53 AM 71.6 °F 68.0 °F 88% 30.01 in 9.0 mi SW 3.5 mph - N/A   Scattered Clouds
6:26 AM 71.6 °F 68.0 °F 88% 30.02 in 9.0 mi West 3.5 mph - N/A   Mostly Cloudy
6:53 AM 71.1 °F 68.0 °F 90% 30.03 in 8.0 mi WSW 8.1 mph - N/A   Overcast
7:07 AM 71.6 °F 66.2 °F 83% 30.03 in 9.0 mi West 9.2 mph - N/A   Overcast
7:53 AM 69.8 °F 64.4 °F 83% 30.03 in 10.0 mi West 6.9 mph - N/A   Overcast
8:53 AM 70.0 °F 64.0 °F 81% 30.02 in 10.0 mi SSW 4.6 mph - N/A   Mostly Cloudy
9:53 AM 70.0 °F 64.0 °F 81% 30.00 in 10.0 mi West 3.5 mph - N/A   Mostly Cloudy
10:53 AM 72.0 °F 63.0 °F 73% 30.01 in 10.0 mi Calm Calm - N/A   Clear
11:53 AM 73.0 °F 64.0 °F 73% 30.01 in 10.0 mi Calm Calm - N/A   Partly Cloudy
12:53 PM 73.0 °F 64.0 °F 73% 29.99 in 10.0 mi Variable 3.5 mph - N/A   Clear
1:53 PM 73.9 °F 64.0 °F 71% 29.99 in 10.0 mi Calm Calm - N/A   Clear
2:53 PM 75.9 °F 63.0 °F 64% 29.97 in 10.0 mi North 4.6 mph - N/A   Clear
3:53 PM 79.0 °F 64.0 °F 60% 29.94 in 10.0 mi NE 4.6 mph - N/A   Clear
4:53 PM 78.1 °F 64.0 °F 62% 29.94 in 10.0 mi NE 4.6 mph - N/A   Scattered Clouds
5:53 PM 72.0 °F 62.1 °F 71% 29.95 in 10.0 mi SSE 4.6 mph - N/A   Clear
6:53 PM 73.0 °F 61.0 °F 66% 29.92 in 10.0 mi South 6.9 mph - N/A   Mostly Cloudy
7:53 PM 70.0 °F 62.1 °F 76% 29.93 in 10.0 mi ENE 3.5 mph - N/A   Clear
8:53 PM 68.0 °F 63.0 °F 84% 29.95 in 10.0 mi Calm Calm - N/A   Clear
9:53 PM 66.9 °F 63.0 °F 87% 29.96 in 10.0 mi Calm Calm - N/A   Clear
10:53 PM 66.0 °F 63.0 °F 90% 29.97 in 10.0 mi Calm Calm - N/A   Clear
11:53 PM 64.9 °F 63.0 °F 93% 29.97 in 6.0 mi Calm Calm - N/A   Clear